[[{"header":{"parameterUnit":"m.s-1","parameterCategory":1,"la1":30.2991,"la2":30.254,"lo1":-89.0895,"lo2":-89.0444,"dy":0.0017,"dx":0.0017,"nx":28,"ny":28,"refTime":"2025-04-05T21:00:00:Z","depth":0,"parameterNumber":2,"parameterNumberName":"U-component_of_WINDS"},"data":[0,0,0,0,0,0,0,0,0,0,0,0,0,0,0,0,0,0,0,0,0,0,0,0,0,0,0,0,0,0,0,0,0,0,0,0,0,0,0,0,0,0,0,0,0,0,0,0,0,0,0,0,0,0,0,0,0,0,-5.8481,-5.8483,0,-5.8666,-5.8669,-5.8671,-5.8706,-5.8704,-5.8703,-5.8701,-5.889,-5.8896,-5.8903,0,0,0,0,0,0,0,0,0,0,0,0,0,-5.8158,-5.8164,-5.8481,-5.8483,-5.8486,-5.8666,-5.8669,-5.8671,-5.8706,-5.8704,-5.8702,-5.8701,-5.8888,-5.8895,-5.8903,0,0,0,0,0,0,0,0,0,0,0,0,0,-5.8316,-5.8166,-5.8481,-5.8525,-5.8531,-5.8666,-5.8669,-5.8672,-5.8706,-5.8704,-5.8702,-5.87,-5.8885,-5.8895,-5.8904,-5.9008,0,0,-5.8934,-5.8938,0,0,0,0,0,0,0,0,-5.8307,-5.8328,-5.8516,-5.8522,-5.8529,-5.8661,-5.8624,-5.8785,-5.8707,-5.864,-5.8701,-5.8699,-5.8815,-5.8831,-5.887,-5.9017,-5.9025,-5.8934,-5.894,-5.8944,-5.8947,0,0,0,0,0,0,0,-5.8296,-5.832,-5.8554,-5.8519,-5.8527,-5.8536,-5.8556,-5.8655,-5.8738,-5.8645,-5.8648,-5.867,-5.8819,-5.8861,-5.8875,-5.9028,-5.8934,-5.8943,-5.8949,-5.8952,-5.9269,-5.9272,0,0,0,0,0,0,-5.8278,-5.8311,-5.8549,-5.856,-5.841,-5.8543,-5.8566,-5.8621,-5.8737,-5.8752,-5.8671,-5.8671,-5.8846,-5.8864,-5.8882,-5.901,-5.8944,-5.8953,-5.8959,-5.9267,-5.927,-5.9273,0,0,0,0,0,0,-5.827,-5.8298,-5.8541,-5.8437,-5.8468,-5.8551,-5.8613,-5.8625,-5.8668,-5.8757,-5.8771,-5.8699,-5.8845,-5.8868,-5.8977,-5.9017,-5.8958,-5.8966,-5.9264,-5.9268,-5.9271,-5.9268,0,0,0,0,0,0,-5.8261,-5.8296,-5.8335,-5.8437,-5.8473,-5.8632,-5.8615,-5.8631,-5.8684,-5.8685,-5.8787,-5.8801,-5.8845,-5.8962,-5.8986,-5.9029,-5.8974,-5.926,-5.9265,-5.927,-5.9265,-5.9272,-5.9277,0,0,0,0,0,-5.8249,-5.8327,-5.8337,-5.8366,-5.8525,-5.8635,-5.8655,-5.8704,-5.8687,-5.8728,-5.8786,-5.8798,-5.901,-5.8973,-5.9,-5.9047,-5.9258,-5.9264,-5.927,-5.9262,-5.927,-5.9277,0,0,0,0,0,0,-5.8227,-5.8341,-5.8354,-5.8467,-5.8541,-5.864,-5.8693,-5.8711,-5.8791,-5.8788,-5.8845,-5.8868,-5.8973,-5.9021,-5.8978,-5.9154,-5.9133,-5.9144,-5.9118,-5.9126,-5.9132,-5.9117,-5.8982,0,0,0,0,0,-5.8236,-5.8315,-5.8411,-5.8501,-5.8538,-5.8609,-5.8659,-5.869,-5.8769,-5.88,-5.8865,-5.8941,-5.9025,-5.9079,-5.9161,-5.9274,-5.9296,-5.932,-5.9326,-5.933,-5.9339,-5.9402,-5.9413,-5.9293,-5.9292,-5.9292,0,0,-5.8253,-5.8326,-5.8372,-5.8498,-5.8559,-5.864,-5.8635,-5.8721,-5.8781,-5.8813,-5.8919,-5.897,-5.9059,-5.917,-5.9222,-5.9213,-5.9378,-5.9338,-5.9341,-5.9347,-5.9409,-5.9421,-5.9431,-5.9297,-5.9296,-5.9295,0,0,-5.8326,-5.839,-5.8472,-5.8533,-5.8626,-5.8674,-5.8694,-5.8792,-5.8827,-5.8934,-5.896,-5.9033,-5.9176,-5.9238,-5.9289,-5.9388,-5.9402,-5.9414,-5.9444,-5.9505,-5.9515,-5.9523,-5.9558,-5.9569,-5.9423,-5.9423,-5.9423,0,-5.8336,-5.8459,-5.8511,-5.8596,-5.8651,-5.8685,-5.8768,-5.8826,-5.8941,-5.8978,-5.8968,-5.9148,-5.9211,-5.9336,-5.9361,-5.9401,-5.9425,-5.9401,-5.9509,-5.9519,-5.9527,-5.9561,-5.9573,-5.9423,-5.9423,-5.9423,-5.9423,0,-5.8466,-5.8552,-5.8607,-5.8717,-5.8779,-5.8862,-5.8927,-5.8984,-5.901,-5.9059,-5.9168,-5.9245,-5.9343,-5.9376,-5.9403,-5.9506,-5.9498,-5.9498,-5.9477,-5.9539,-5.9571,-5.9584,-5.9424,-5.9424,-5.9424,-5.9424,0,0,-5.8527,-5.8667,-5.8687,-5.8737,-5.8844,-5.891,-5.8997,-5.9093,-5.9139,-5.9219,-5.9291,-5.9413,-5.9414,-5.9471,-5.9506,-5.956,-5.9633,-5.9554,-5.9557,-5.9564,-5.975,-5.9747,-5.9761,-5.9644,-5.9647,-5.9649,-5.9742,0,-5.8612,-5.8765,-5.8816,-5.8944,-5.9023,-5.9058,-5.9133,-5.9206,-5.9255,-5.9329,-5.9383,-5.9468,-5.9464,-5.9498,-5.9553,-5.9612,-5.967,-5.9606,-5.9711,-5.9714,-5.9685,-5.9778,-5.9776,-5.9859,-5.9755,-5.9757,-5.9759,0,-5.873,-5.8811,-5.8946,-5.9043,-5.9079,-5.9145,-5.9238,-5.9309,-5.9393,-5.9425,-5.949,-5.9521,-5.9613,-5.9589,-5.9716,-5.9671,-5.9718,-5.9753,-5.9758,-5.9767,-5.9738,-5.9788,-5.9887,-5.9899,-5.9779,-5.9778,-5.9776,0,-5.8758,-5.8902,-5.9002,-5.9044,-5.916,-5.9206,-5.9257,-5.9339,-5.9394,-5.9476,-5.9512,-5.9604,-5.9653,-5.9724,-5.9778,-5.9756,-5.99,-5.9881,-5.9928,-5.9926,-5.9954,-5.9951,-6.006,-5.9988,-5.9988,-5.9988,-5.9988,0,-5.8846,-5.8927,-5.9016,-5.9077,-5.9169,-5.9228,-5.9317,-5.937,-5.9444,-5.9516,-5.9553,-5.9619,-5.9689,-5.9766,-5.981,-5.9907,-5.993,-5.9958,-5.9968,-5.9953,-5.9949,-5.9982,-5.9977,-5.9991,-5.999,-5.999,-5.9989,0,-5.8892,-5.8955,-5.9066,-5.9167,-5.9195,-5.9258,-5.9345,-5.9406,-5.9457,-5.9548,-5.9573,-5.9653,-5.9745,-5.9808,-5.9926,-5.9955,-6.006,-6.0071,-6.0031,-6.0036,-6.0078,-6.0073,-6.021,-6.0231,-6.0147,-6.0148,-6.0149,0,-5.8942,-5.9005,-5.9114,-5.9165,-5.9215,-5.9297,-5.9354,-5.9415,-5.9472,-5.9574,-5.9623,-5.9717,-5.9796,-5.9941,-6.001,-6.01,-6.0112,-6.0154,-6.0125,-6.0109,-6.011,-6.0105,-6.0111,-6.0157,-6.0158,-6.0158,-6.0159,0,-5.9023,-5.9052,-5.9132,-5.9224,-5.929,-5.9365,-5.9441,-5.9481,-5.9555,-5.9618,-5.9712,-5.9773,-5.9894,-5.9987,-6.0085,-6.0137,-6.016,-6.0168,-6.0183,-6.0167,-6.0141,-6.0154,-6.0041,-6.0164,-6.0163,-6.0163,-6.0162,-6.0162,-5.9072,-5.913,-5.9215,-5.9304,-5.9367,-5.9437,-5.9499,-5.9559,-5.9638,-5.9741,-5.9773,-5.9871,-5.9956,-6.0089,-6.0143,-6.0221,-6.0217,-6.024,-6.0245,-6.0249,-6.0248,-6.0131,-6.0239,-6.0239,-6.0239,-6.0239,-6.0239,0,-5.9154,-5.9211,-5.9292,-5.9396,-5.9466,-5.9484,-5.9568,-5.9625,-5.9711,-5.9788,-5.9865,-5.9974,-6.0065,-6.0142,-6.0236,-6.0283,-6.0296,-6.0306,-6.0302,-6.0313,-6.0247,-6.0223,-6.0294,-6.0294,-6.0294,-6.0294,-6.0294,-6.0294,-5.9204,-5.9303,-5.9342,-5.9473,-5.953,-5.9626,-5.9673,-5.9738,-5.9799,-5.9919,-5.9995,-6.0045,-6.0122,-6.0223,-6.0307,-6.0328,-6.036,-6.0367,-6.0389,-6.0324,-6.0318,-6.0312,-6.029,-6.0374,-6.0374,-6.0449,-6.045,-6.045]},{"header":{"parameterUnit":"m.s-1","parameterCategory":1,"la1":30.2991,"la2":30.254,"lo1":-89.0895,"lo2":-89.0444,"dy":0.0017,"dx":0.0017,"nx":28,"ny":28,"refTime":"2025-04-05T21:00:00:Z","depth":0,"parameterNumber":3,"parameterNumberName":"V-component_of_WINDS"},"data":[0,0,0,0,0,0,0,0,0,0,0,0,0,0,0,0,0,0,0,0,0,0,0,0,0,0,0,0,0,0,0,0,0,0,0,0,0,0,0,0,0,0,0,0,0,0,0,0,0,0,0,0,0,0,0,0,0,0,4.0869,4.0869,0,4.0946,4.0947,4.0948,4.0975,4.0975,4.0974,4.0974,4.1051,4.1053,4.1055,0,0,0,0,0,0,0,0,0,0,0,0,0,4.0744,4.0746,4.0868,4.0869,4.087,4.0946,4.0947,4.0948,4.0975,4.0975,4.0974,4.0974,4.105,4.1053,4.1056,0,0,0,0,0,0,0,0,0,0,0,0,0,4.0807,4.0747,4.0868,4.0893,4.0896,4.0946,4.0947,4.0948,4.0975,4.0975,4.0974,4.0974,4.1049,4.1053,4.1056,4.1086,0,0,4.1066,4.1068,0,0,0,0,0,0,0,0,4.0804,4.0812,4.0889,4.0892,4.0895,4.095,4.0931,4.0994,4.0975,4.0945,4.0974,4.0974,4.1018,4.1024,4.1039,4.1089,4.1092,4.1067,4.1069,4.107,4.1071,0,0,0,0,0,0,0,4.0799,4.0809,4.0899,4.089,4.0894,4.09,4.0909,4.0943,4.0983,4.0948,4.095,4.0959,4.1019,4.1036,4.1041,4.1094,4.1067,4.107,4.1072,4.1073,4.1175,4.1176,0,0,0,0,0,0,4.0791,4.0805,4.0897,4.0901,4.0848,4.0903,4.0913,4.0933,4.0982,4.099,4.0959,4.096,4.103,4.1037,4.1044,4.1084,4.107,4.1074,4.1076,4.1175,4.1176,4.1176,0,0,0,0,0,0,4.0788,4.0799,4.0893,4.0854,4.0866,4.0906,4.0928,4.0935,4.0951,4.0991,4.0998,4.0968,4.103,4.1039,4.1076,4.1087,4.1075,4.1078,4.1174,4.1175,4.1176,4.1163,0,0,0,0,0,0,4.0785,4.0798,4.0809,4.0854,4.0868,4.0924,4.0929,4.0937,4.0957,4.0959,4.1002,4.1008,4.103,4.1071,4.1079,4.1091,4.1081,4.1173,4.1174,4.1176,4.1162,4.1163,4.1164,0,0,0,0,0,4.078,4.0801,4.081,4.0821,4.0884,4.0925,4.0933,4.0958,4.0958,4.097,4.0996,4.1007,4.1084,4.1074,4.1084,4.1097,4.1173,4.1174,4.1175,4.1162,4.1163,4.1164,0,0,0,0,0,0,4.0755,4.0807,4.0817,4.0854,4.0885,4.0929,4.0945,4.0958,4.0989,4.0989,4.1019,4.1028,4.1064,4.1084,4.1072,4.113,4.1129,4.1133,4.1115,4.1117,4.1117,4.1112,4.1084,0,0,0,0,0,4.0754,4.0783,4.0827,4.0855,4.0871,4.0905,4.0924,4.0941,4.0974,4.0987,4.1016,4.1047,4.1079,4.1099,4.113,4.1166,4.1176,4.118,4.1181,4.1181,4.1184,4.1207,4.1209,4.1181,4.1181,4.1181,0,0,4.0751,4.0784,4.08,4.0851,4.0877,4.0907,4.0916,4.0947,4.097,4.0992,4.1029,4.1052,4.1089,4.1126,4.1144,4.1144,4.1194,4.1183,4.1183,4.1185,4.1208,4.1211,4.1213,4.1182,4.1182,4.1182,0,0,4.0762,4.0789,4.0817,4.0844,4.0884,4.0908,4.0914,4.0958,4.0974,4.1013,4.1031,4.1058,4.1111,4.1138,4.1158,4.1184,4.1195,4.1193,4.1196,4.1218,4.1221,4.1223,4.1233,4.1236,4.1195,4.1195,4.1195,0,4.0754,4.08,4.0829,4.086,4.0883,4.0906,4.0935,4.0959,4.1007,4.1022,4.1022,4.1092,4.1118,4.1163,4.117,4.1185,4.1195,4.1188,4.1218,4.1221,4.1223,4.1233,4.1237,4.1195,4.1195,4.1195,4.1195,0,4.0789,4.0821,4.0839,4.0887,4.0911,4.094,4.0974,4.0996,4.1012,4.1035,4.1075,4.1108,4.1148,4.116,4.1175,4.1208,4.1207,4.1212,4.1212,4.1225,4.1235,4.1239,4.1194,4.1194,4.1194,4.1195,0,0,4.0784,4.085,4.0856,4.0879,4.0927,4.0953,4.0984,4.1024,4.1043,4.1076,4.1104,4.115,4.1156,4.118,4.1198,4.1217,4.1238,4.122,4.1222,4.1224,4.1278,4.1275,4.1279,4.1246,4.1247,4.1247,4.1276,0,4.0802,4.086,4.0888,4.0934,4.0965,4.099,4.1018,4.105,4.1074,4.1104,4.113,4.1163,4.1168,4.1183,4.1203,4.1231,4.1249,4.1229,4.1272,4.1274,4.1263,4.1284,4.1279,4.1304,4.128,4.128,4.1281,0,4.083,4.0866,4.0915,4.0963,4.0977,4.1001,4.1042,4.107,4.1108,4.1125,4.1152,4.1171,4.1206,4.1204,4.1253,4.1239,4.1258,4.1275,4.1277,4.1282,4.1278,4.129,4.1313,4.1317,4.1287,4.1287,4.1286,0,4.0824,4.0884,4.0922,4.0941,4.0996,4.1013,4.1037,4.1075,4.1099,4.1134,4.115,4.1188,4.121,4.1239,4.1268,4.1264,4.1316,4.1315,4.133,4.133,4.134,4.1339,4.1367,4.1352,4.1351,4.1351,4.1351,0,4.0841,4.0871,4.092,4.0943,4.0978,4.1011,4.1044,4.1069,4.1104,4.1133,4.1156,4.1183,4.122,4.1252,4.1274,4.1313,4.1322,4.1336,4.1342,4.1335,4.1333,4.1348,4.1347,4.1352,4.1352,4.1352,4.1352,0,4.0839,4.0873,4.0917,4.0967,4.098,4.1004,4.1047,4.1071,4.1097,4.1134,4.1145,4.1185,4.1225,4.1257,4.1307,4.1323,4.1363,4.1369,4.1351,4.1354,4.1368,4.1367,4.1407,4.1414,4.1393,4.1393,4.1394,0,4.0848,4.0872,4.0926,4.0948,4.0972,4.1007,4.1032,4.1066,4.1091,4.1138,4.1157,4.1198,4.1233,4.1294,4.1328,4.1367,4.1375,4.1387,4.1381,4.1374,4.1377,4.1376,4.1379,4.1387,4.1387,4.1387,4.1387,0,4.0861,4.0878,4.0913,4.0955,4.0985,4.1019,4.1054,4.1071,4.1112,4.1139,4.118,4.1207,4.1261,4.1302,4.1345,4.137,4.1386,4.1389,4.1395,4.1388,4.1376,4.1384,4.1353,4.1388,4.1388,4.1388,4.1388,4.1388,4.0865,4.0889,4.0932,4.0971,4.1002,4.1035,4.1061,4.1092,4.1127,4.1174,4.1192,4.1235,4.1275,4.1336,4.1361,4.1395,4.1397,4.1405,4.1407,4.1409,4.1409,4.1371,4.1403,4.1403,4.1403,4.1403,4.1403,0,4.0881,4.091,4.0946,4.0996,4.1028,4.1042,4.1082,4.1108,4.1146,4.1182,4.1217,4.1266,4.1307,4.1345,4.1388,4.1408,4.1417,4.1418,4.1417,4.1423,4.1404,4.1395,4.1411,4.1411,4.1411,4.1411,4.1411,4.1411,4.0892,4.0934,4.0956,4.1013,4.1042,4.1086,4.1108,4.1139,4.1169,4.1223,4.1258,4.1283,4.1322,4.1368,4.1407,4.1417,4.1432,4.1432,4.1444,4.1425,4.1424,4.1423,4.1415,4.1435,4.1435,4.1461,4.1461,4.1461]}]]